When you browse on this site, cookies collect data to enhance your experience and personalize the content and advertising you see.
Visit our Privacy Policy to learn more. By continuing to use the site, you agree to this use of cookies and data.
  • en Belgique
  • Liste des pays
  • À 7 jours
  • Température de l'eau
  • Carte satellitaire
  • Carte météo
  • Widgets météo
  • user-avatar
    Se connecter

    Météo par heure à Polyana

    Ce jour, 23 Février, Samedi

    Heure Température Précipitation Vent Pression Humidité
    00:00 -13°C° 0 mm 2 m/s 761 mmHg 90%
    01:00 -14°C° 0 mm 2 m/s 761 mmHg 91%
    02:00 -15°C° 0 mm 2 m/s 761 mmHg 92%
    03:00 -14°C° 0 mm 2 m/s 761 mmHg 91%
    04:00 -14°C° 0 mm 2 m/s 761 mmHg 91%
    05:00 -14°C° 0 mm 2 m/s 760 mmHg 90%
    06:00 -13°C° 0 mm 2 m/s 760 mmHg 86%
    07:00 -13°C° 0 mm 3 m/s 760 mmHg 81%
    08:00 -12°C° 0 mm 3 m/s 760 mmHg 75%
    09:00 -11°C° 0.1 mm 4 m/s 759 mmHg 77%
    10:00 -10°C° 0.1 mm 4 m/s 758 mmHg 78%
    11:00 -9°C° 0.1 mm 4 m/s 757 mmHg 80%
    12:00 -10°C° 0.7 mm 5 m/s 756 mmHg 84%
    13:00 -10°C° 0.7 mm 5 m/s 756 mmHg 88%
    14:00 -10°C° 0.7 mm 5 m/s 755 mmHg 92%
    15:00 -8°C° 0.8 mm 5 m/s 754 mmHg 92%
    16:00 -8°C° 0.8 mm 4 m/s 754 mmHg 92%
    17:00 -8°C° 0.8 mm 4 m/s 753 mmHg 92%
    18:00 -7°C° 0.3 mm 4 m/s 753 mmHg 93%
    19:00 -6°C° 0.3 mm 3 m/s 752 mmHg 93%
    20:00 -5°C° 0.3 mm 3 m/s 752 mmHg 94%
    21:00 -4°C° 0.2 mm 3 m/s 752 mmHg 94%
    22:00 -2°C° 0.2 mm 3 m/s 752 mmHg 94%
    23:00 -1°C° 0.2 mm 3 m/s 752 mmHg 95%

    Demain, 24 Février, Dimanche

    Heure Température Précipitation Vent Pression Humidité
    00:00 -1°C° 0.1 mm 3 m/s 752 mmHg 95%
    01:00 -1°C° 0.1 mm 3 m/s 752 mmHg 95%
    02:00 0°C° 0.1 mm 3 m/s 752 mmHg 96%
    03:00 0°C° 0.1 mm 3 m/s 752 mmHg 96%
    04:00 0°C° 0.1 mm 3 m/s 752 mmHg 96%
    05:00 0°C° 0.1 mm 3 m/s 752 mmHg 97%
    06:00 0°C° 0 mm 3 m/s 752 mmHg 97%
    07:00 0°C° 0 mm 3 m/s 752 mmHg 97%
    08:00 0°C° 0 mm 3 m/s 752 mmHg 97%
    09:00 0°C° 0 mm 3 m/s 752 mmHg 98%
    10:00 0°C° 0 mm 3 m/s 752 mmHg 98%
    11:00 +1°C° 0 mm 3 m/s 752 mmHg 99%
    12:00 +1°C° 0 mm 3 m/s 752 mmHg 99%
    13:00 +1°C° 0 mm 3 m/s 752 mmHg 98%
    14:00 +2°C° 0 mm 2 m/s 751 mmHg 98%
    15:00 +1°C° 0 mm 2 m/s 751 mmHg 97%
    16:00 +1°C° 0 mm 2 m/s 750 mmHg 97%
    17:00 +1°C° 0 mm 2 m/s 750 mmHg 96%
    18:00 0°C° 0.1 mm 3 m/s 749 mmHg 96%
    19:00 0°C° 0.1 mm 3 m/s 749 mmHg 96%
    20:00 0°C° 0.1 mm 3 m/s 748 mmHg 96%
    21:00 -1°C° 0.1 mm 4 m/s 748 mmHg 95%
    22:00 -1°C° 0.1 mm 4 m/s 747 mmHg 94%
    23:00 0°C° 0.1 mm 4 m/s 746 mmHg 92%

    Après-demain, 25 Février, Lundi

    Heure Température Précipitation Vent Pression Humidité
    00:00 0°C° 0.1 mm 4 m/s 746 mmHg 92%
    01:00 0°C° 0.1 mm 5 m/s 745 mmHg 92%
    02:00 0°C° 0.1 mm 5 m/s 745 mmHg 92%
    03:00 -1°C° 0 mm 5 m/s 745 mmHg 91%
    04:00 -1°C° 0 mm 5 m/s 745 mmHg 89%
    05:00 -1°C° 0 mm 5 m/s 744 mmHg 88%
    06:00 -1°C° 0.1 mm 5 m/s 744 mmHg 88%
    07:00 -1°C° 0.1 mm 5 m/s 743 mmHg 88%
    08:00 -2°C° 0.1 mm 4 m/s 743 mmHg 88%
    09:00 -1°C° 0.2 mm 5 m/s 742 mmHg 87%
    10:00 -1°C° 0.2 mm 5 m/s 742 mmHg 87%
    11:00 -1°C° 0.2 mm 5 m/s 742 mmHg 87%
    12:00 -1°C° 0.2 mm 5 m/s 741 mmHg 87%
    13:00 -1°C° 0.2 mm 5 m/s 741 mmHg 87%
    14:00 -1°C° 0.2 mm 5 m/s 741 mmHg 88%
    15:00 -1°C° 0.2 mm 5 m/s 740 mmHg 88%
    16:00 -1°C° 0.2 mm 5 m/s 740 mmHg 88%
    17:00 -1°C° 0.2 mm 5 m/s 740 mmHg 89%
    18:00 -1°C° 0.1 mm 5 m/s 741 mmHg 89%
    19:00 -1°C° 0.1 mm 5 m/s 741 mmHg 88%
    20:00 -1°C° 0.1 mm 5 m/s 741 mmHg 88%
    21:00 -1°C° 0 mm 5 m/s 741 mmHg 88%
    22:00 -1°C° 0 mm 4 m/s 741 mmHg 88%
    23:00 -1°C° 0 mm 4 m/s 742 mmHg 88%

    26 Février, Mardi

    Heure Température Précipitation Vent Pression Humidité
    00:00 -2°C° 0 mm 4 m/s 741 mmHg 89%
    01:00 -2°C° 0 mm 4 m/s 741 mmHg 89%
    02:00 -3°C° 0 mm 4 m/s 741 mmHg 90%
    03:00 -2°C° 0.1 mm 4 m/s 741 mmHg 90%
    04:00 -2°C° 0.1 mm 4 m/s 740 mmHg 91%
    05:00 -2°C° 0.1 mm 4 m/s 740 mmHg 91%
    06:00 -2°C° 0 mm 4 m/s 740 mmHg 90%
    07:00 -2°C° 0 mm 4 m/s 740 mmHg 90%
    08:00 -2°C° 0 mm 4 m/s 740 mmHg 90%
    09:00 -2°C° 0.1 mm 4 m/s 740 mmHg 87%
    10:00 -2°C° 0.1 mm 4 m/s 740 mmHg 85%
    11:00 -2°C° 0.1 mm 4 m/s 740 mmHg 83%
    12:00 -2°C° 0.1 mm 4 m/s 741 mmHg 84%
    13:00 -2°C° 0.1 mm 4 m/s 741 mmHg 84%
    14:00 -2°C° 0.1 mm 4 m/s 742 mmHg 84%
    15:00 -2°C° 0.1 mm 4 m/s 742 mmHg 84%
    16:00 -3°C° 0.1 mm 4 m/s 743 mmHg 84%
    17:00 -3°C° 0.1 mm 4 m/s 743 mmHg 84%
    18:00 -4°C° 0 mm 4 m/s 744 mmHg 83%
    19:00 -4°C° 0 mm 4 m/s 745 mmHg 83%
    20:00 -5°C° 0 mm 4 m/s 745 mmHg 82%
    21:00 -6°C° 0 mm 3 m/s 745 mmHg 85%
    22:00 -7°C° 0 mm 3 m/s 746 mmHg 87%
    23:00 -8°C° 0 mm 3 m/s 746 mmHg 89%

    27 Février, Mercredi

    Heure Température Précipitation Vent Pression Humidité
    00:00 -9°C° 0 mm 3 m/s 746 mmHg 90%
    01:00 -8°C° 0 mm 2 m/s 747 mmHg 91%
    02:00 -9°C° 0 mm 2 m/s 747 mmHg 92%
    03:00 -9°C° 0 mm 2 m/s 747 mmHg 93%
    04:00 -10°C° 0 mm 2 m/s 747 mmHg 94%
    05:00 -9°C° 0 mm 1 m/s 747 mmHg 96%
    06:00 -9°C° 0 mm 1 m/s 746 mmHg 95%
    07:00 -9°C° 0 mm 1 m/s 746 mmHg 94%
    08:00 -9°C° 0 mm 1 m/s 746 mmHg 93%
    09:00 -8°C° 0 mm 1 m/s 745 mmHg 89%
    10:00 -8°C° 0 mm 2 m/s 744 mmHg 86%
    11:00 -7°C° 0 mm 2 m/s 743 mmHg 83%
    12:00 -6°C° 0.2 mm 2 m/s 742 mmHg 85%
    13:00 -6°C° 0.2 mm 3 m/s 741 mmHg 88%
    14:00 -5°C° 0.2 mm 3 m/s 740 mmHg 90%
    15:00 -4°C° 0.1 mm 3 m/s 740 mmHg 90%
    16:00 -3°C° 0.1 mm 4 m/s 739 mmHg 90%
    17:00 -2°C° 0.1 mm 4 m/s 738 mmHg 90%
    18:00 -1°C° 0 mm 3 m/s 738 mmHg 90%
    19:00 -1°C° 0 mm 3 m/s 738 mmHg 90%
    20:00 -1°C° 0 mm 3 m/s 737 mmHg 91%
    21:00 -1°C° 0 mm 3 m/s 737 mmHg 91%
    22:00 -2°C° 0 mm 4 m/s 736 mmHg 91%
    23:00 -2°C° 0 mm 4 m/s 736 mmHg 91%

    28 Février, Jeudi

    Heure Température Précipitation Vent Pression Humidité
    00:00 -2°C° 0 mm 4 m/s 735 mmHg 91%
    01:00 -2°C° 0 mm 4 m/s 735 mmHg 91%
    02:00 -2°C° 0 mm 4 m/s 735 mmHg 92%
    03:00 -2°C° 0 mm 4 m/s 734 mmHg 91%
    04:00 -2°C° 0 mm 4 m/s 734 mmHg 91%
    05:00 -2°C° 0 mm 4 m/s 733 mmHg 91%
    06:00 -2°C° 0 mm 4 m/s 733 mmHg 91%
    07:00 -2°C° 0 mm 4 m/s 732 mmHg 91%
    08:00 -2°C° 0 mm 4 m/s 732 mmHg 91%
    09:00 -2°C° 0 mm 4 m/s 731 mmHg 91%
    10:00 -2°C° 0 mm 4 m/s 730 mmHg 90%
    11:00 -2°C° 0 mm 4 m/s 729 mmHg 89%
    12:00 -2°C° 0 mm 4 m/s 728 mmHg 90%
    13:00 -2°C° 0 mm 4 m/s 728 mmHg 90%
    14:00 -1°C° 0 mm 4 m/s 727 mmHg 91%
    15:00 -1°C° 0.4 mm 4 m/s 726 mmHg 91%
    16:00 0°C° 0.4 mm 3 m/s 725 mmHg 92%
    17:00 0°C° 0.4 mm 3 m/s 725 mmHg 92%
    18:00 0°C° 0.8 mm 3 m/s 724 mmHg 93%
    19:00 -1°C° 0.8 mm 3 m/s 723 mmHg 93%
    20:00 -1°C° 0.8 mm 3 m/s 723 mmHg 94%
    21:00 -1°C° 0.1 mm 2 m/s 722 mmHg 94%
    22:00 -2°C° 0.1 mm 2 m/s 722 mmHg 94%
    23:00 -2°C° 0.1 mm 2 m/s 721 mmHg 94%
    Voir plus